sat.trackr.live / text

‹ back to catalog

STARLINK-3236

NORAD 49750 · 2021-115AC

PAYLOAD ACTIVE UNKNOWN

§ Identity

Operator
Country
US
Launch date
2021-12-02
Launch site
AFETR
Launch vehicle
Mass (kg)
RCS (m²)

Purposes: comms

External: N2YO · Heavens-Above · Gunter

§ Orbital elements

Epoch: 2026-09-20T04:54:11.555424Z

Period
94.01 min
Inclination
53.1607°
Eccentricity
0.0001278
Mean motion
15.31697882 rev/d
Perigee alt
469.9 km
Apogee alt
471.6 km
Semi-major
6,848.9 km
B*
3.7882e-5
RAAN
341.2014°
Arg perigee
83.8833°
Mean anomaly
276.2314°
Rev number
26,509

§ Raw data

STARLINK-32361 49750U 21115AC  26263.20430041  .00000810  00000+0  37882-4 0  99982 49750  53.1607 341.2014 0001278  83.8833 276.2314 15.31697882265092

JSON: /api/v1/satellites/49750 · /tle

For live sub-satellite position, see the globe view (requires WebGL).

§ Visibility from observer

Set your observer location to see the next 7 days of passes ≥ 10°. The values pass through the URL so the page stays shareable.

No JS? Fill the form by hand. The geolocation button needs JavaScript.